This demonstration page uses our WeatherBlox Daily Observations layout. Learn more.

Left ArrowRight Arrow

38.88101, -77.10428

Hourly Observations for July 22, 2020

Temp ( °F °C ) Dew Point ( °F °C ) Humidity (%) Winds ( mph kmh ) Pressure ( in mb ) Visibility ( mi km ) Precip ( " mm )
12:52 am 00:52 Cloudy 77 25 74 23.3 90 90 NW 3 6 30.04 1017 10 16.0934 0.001 0.001
1:52 am 01:52 Mostly Cloudy 77 25 74 23.3 90 90 SW 6 9 30.05 1018 10 16.0934 0 0
2:50 am 02:50 Cloudy 75 24 73 23 94 94 SSW 5 7 30.05 1018 10 16.0934 0 0
2:52 am 02:52 Cloudy 76 24.4 74 23.3 94 94 SSW 6 9 30.05 1018 10 16.0934 0 0
3:04 am 03:04 Cloudy 76 24.4 73 22.8 91 91 SSW 5 7 30.05 1018 10 16.0934 0 0
3:52 am 03:52 Mostly Cloudy 76 24.4 73 22.8 91 91 SW 3 6 30.03 1017 10 16.0934 0 0
4:52 am 04:52 Mostly Cloudy 76 24.4 73 22.8 91 91 W 3 6 30.02 1017 10 16.0934 0 0
5:52 am 05:52 Mostly Cloudy 76 24.4 73 22.8 91 91 WSW 3 6 30.02 1017 10 16.0934 0 0
6:52 am 06:52 Mostly Cloudy 76 24.4 73 22.8 91 91 SW 3 6 30.03 1017 10 16.0934 0 0
7:52 am 07:52 Mostly Cloudy 77 25 74 23.3 90 90 SSW 6 9 30.04 1017 10 16.0934 0 0
8:52 am 08:52 Mostly Cloudy 79 26.1 74 23.3 85 85 SSW 7 11 30.06 1018 10 16.0934 0 0
9:52 am 09:52 Mostly Cloudy 82 27.8 75 23.9 79 79 S 6 9 30.06 1018 10 16.0934 0 0
10:52 am 10:52 Mostly Cloudy 85 29.4 76 24.4 75 75 SSE 7 11 30.06 1018 10 16.0934 0 0
11:52 am 11:52 Partly Cloudy 88 31.1 76 24.4 68 68 SSE 7 11 30.04 1017 10 16.0934 0 0
12:52 pm 12:52 Partly Cloudy 89 31.7 76 24.4 65 65 S 9 15 30.03 1017 10 16.0934 0 0
1:52 pm 13:52 Partly Cloudy 91 32.8 76 24.4 61 61 S 8 13 30 1016 10 16.0934 0 0
2:52 pm 14:52 Mostly Cloudy 94 34.4 76 24.4 56 56 S 10 17 30 1016 10 16.0934 0 0
3:36 pm 15:36 Mostly Cloudy with Nearby Thunderstorms 91 32.8 76 24.4 61 61 SSW 12 19 30.01 1016 10 16.0934 0 0
3:45 pm 15:45 Mostly Cloudy with Thunderstorms 91 32.8 76 24.4 61 61 W 21 33 30.04 1017 10 16.0934 0 0
3:52 pm 15:52 Mostly Cloudy with Thunderstorms 82 27.8 69 20.6 65 65 WNW 29 46 30.02 1017 10 16.0934 0 0
3:56 pm 15:56 Mostly Cloudy with Thunderstorms 79 26.1 70 21.1 74 74 WNW 40 65 30.03 1017 6 9.65604 0 0
4:00 pm 16:00 Cloudy with Thunderstorms 76 24.4 71 21.7 85 85 W 32 52 30.05 1018 2 3.21868 0.001 0.001
4:02 pm 16:02 Cloudy with Heavy Thunderstorms 75 23.9 71 21.7 88 88 W 37 59 30.07 1018 1.25 2.011675 0.03 0.762
4:07 pm 16:07 Cloudy with Heavy Thunderstorms 74 23.3 71 21.7 91 91 W 26 43 30.08 1019 0.75 1.207005 0.14 3.556
4:22 pm 16:22 Cloudy with Heavy Thunderstorms 74 23.3 71 21.7 91 91 WNW 10 17 30.07 1018 2.5 4.02335 0.36 9.144
4:25 pm 16:25 Cloudy with Thunderstorms 74 23.3 71 21.7 91 91 WNW 9 15 30.07 1018 3 4.82802 0.38 9.652
4:57 pm 16:57 Mostly Cloudy with Light Thunderstorms 74 23.3 71 21.7 91 91 NE 3 6 30.04 1017 10 16.0934 0.01 0.254
5:52 pm 17:52 Mostly Cloudy with Nearby Thunderstorms 75 23.9 72 22.2 90 90 SSE 6 9 30.08 1019 10 16.0934 0.05 1.27
5:55 pm 17:55 Mostly Cloudy with Light Thunderstorms 75 23.9 72 22.2 90 90 SE 3 6 30.08 1019 10 16.0934 0.001 0.001
6:52 pm 18:52 Cloudy with Light Thunderstorms 76 24.4 72 22.2 88 88 SE 5 7 30.08 1019 10 16.0934 0.07 1.778
7:49 pm 19:49 Cloudy with Light Rain 75 24 72 22 89 89 SSW 8 13 30.05 1018 10 16.0934 0.02 0.508
7:52 pm 19:52 Cloudy with Light Rain 75 23.9 72 22.2 90 90 S 6 9 30.04 1017 10 16.0934 0.02 0.508
8:52 pm 20:52 Cloudy 75 23.9 73 22.8 94 94 WSW 6 9 30.03 1017 10 16.0934 0.001 0.001
9:52 pm 21:52 Cloudy 76 24.4 73 22.8 91 91 W 6 9 30.06 1018 10 16.0934 0 0
9:56 pm 21:56 Mostly Cloudy 76 24.4 73 22.8 91 91 W 5 7 30.06 1018 10 16.0934 0 0
10:14 pm 22:14 Partly Cloudy 76 24.4 73 22.8 91 91 WSW 5 7 30.06 1018 10 16.0934 0 0
10:52 pm 22:52 Mostly Cloudy 75 23.9 73 22.8 94 94 WSW 3 6 30.05 1018 10 16.0934 0 0
11:52 pm 23:52 Mostly Cloudy 75 23.9 73 22.8 94 94 SSW 6 9 30.06 1018 10 16.0934 0 0

Powered by AerisWeather